This is the latest recevied weather packets stored in our database for station/object DG5MG. If no packets are shown the sender has not sent any weather packets the latest 10 day(s).
| Time | Temp. | Humidity | Pressure | Rain* | Wind** | Luminosity | Snow |
|---|---|---|---|---|---|---|---|
| 1778056805 | 16.67° C | 67% | 1011.9 hPa | 0 mm | - | 841 W/m² | - |
| 1778056505 | 16.67° C | 68% | 1011.9 hPa | 0 mm | - | 818 W/m² | - |
| 1778053805 | 17.78° C | 69% | 1012.2 hPa | 0 mm | - | 600 W/m² | - |
| 1778051405 | 15° C | 85% | 1012.5 hPa | 0 mm | - | 406 W/m² | - |
| 1778051105 | 15° C | 85% | 1012.5 hPa | 0 mm | - | 382 W/m² | - |
| 1778048705 | 11.67° C | 98% | 1012.5 hPa | 0 mm | - | 206 W/m² | - |
| 1778048405 | 11.67° C | 98% | 1012.5 hPa | 0 mm | - | 185 W/m² | - |
| 1778047805 | 10.56° C | 98% | 1012.5 hPa | 0 mm | - | 146 W/m² | - |
| 1778046005 | 10.56° C | 98% | 1012.5 hPa | 0 mm | - | 0 W/m² | - |
| 1778045705 | 10.56° C | 98% | 1012.5 hPa | 0 mm | - | 0 W/m² | - |
| 1778044505 | 10° C | 98% | 1012.5 hPa | 0 mm | - | 0 W/m² | - |
| 1778042405 | 8.89° C | 98% | 1012.5 hPa | 0 mm | - | 0 W/m² | - |
| 1778039704 | 8.89° C | 98% | 1013.2 hPa | 0 mm | - | 0 W/m² | - |
| 1778037604 | 8.89° C | 98% | 1013.2 hPa | 0 mm | - | 0 W/m² | - |
| 1778033104 | 9.44° C | 97% | 1013.2 hPa | 0 mm | - | 0 W/m² | - |
| 1778031005 | 9.44° C | 97% | 1013.5 hPa | 0 mm | - | 0 W/m² | - |
| 1778030404 | 9.44° C | 97% | 1013.9 hPa | 0 mm | - | 0 W/m² | - |
| 1778028004 | 10° C | 97% | 1013.9 hPa | 0 mm | - | 0 W/m² | - |
| 1778027404 | 10° C | 97% | 1013.9 hPa | 0 mm | - | 0 W/m² | - |
| 1778025004 | 10.56° C | 97% | 1014.2 hPa | 0 mm | - | 0 W/m² | - |
| 1778022904 | 10.56° C | 97% | 1014.2 hPa | 0 mm | - | 0 W/m² | - |
| 1778021405 | 11.11° C | 97% | 1014.2 hPa | 0 mm | - | 0 W/m² | - |
| 1778019905 | 11.67° C | 97% | 1014.6 hPa | 0 mm | - | 0 W/m² | - |
| 1778019304 | 11.67° C | 97% | 1014.6 hPa | 0 mm | - | 0 W/m² | - |
| 1778019004 | 11.67° C | 97% | 1014.7 hPa | 0.25 mm | - | 0 W/m² | - |
* Rain latest hour (hover to see other rain measurements)
** Current wind speed in m/s (hover to see current wind gust speed)